This is the latest recevied weather packets stored in our database for station/object SV9TNF-55. If no packets are shown the sender has not sent any weather packets the latest 10 day(s).
| Time | Temp. | Humidity | Pressure | Rain* | Wind** | Luminosity | Snow |
|---|---|---|---|---|---|---|---|
| 1788061011 | 21.11° C | 26% | 1016.4 hPa | 0 mm | 0.45 m/s, 337° | - | - |
| 1788060411 | 20.56° C | 28% | 1016.6 hPa | 0 mm | 0.89 m/s, 247° | - | - |
| 1788059811 | 20.56° C | 22% | 1016.5 hPa | 0 mm | 0.89 m/s, 292° | - | - |
| 1788059211 | 20.56° C | 22% | 1016.4 hPa | 0 mm | 0.45 m/s, 292° | - | - |
| 1788058610 | 21.11° C | 19% | 1016.5 hPa | 0 mm | 1.34 m/s, 292° | - | - |
| 1788058011 | 21.11° C | 16% | 1016.4 hPa | 0 mm | 1.34 m/s, 292° | - | - |
| 1788057410 | 21.11° C | 13% | 1016.5 hPa | 0 mm | 0.89 m/s, 292° | - | - |
| 1788056810 | 21.11° C | 13% | 1016.5 hPa | 0 mm | 0.89 m/s, 292° | - | - |
| 1788056210 | 21.11° C | 13% | 1016.4 hPa | 0 mm | 1.79 m/s, 292° | - | - |
| 1788055609 | 21.11° C | 14% | 1016.4 hPa | 0 mm | 1.34 m/s, 270° | - | - |
| 1788055009 | 21.67° C | 15% | 1016.3 hPa | 0 mm | 0.89 m/s, 292° | - | - |
| 1788054409 | 21.67° C | 14% | 1016.2 hPa | 0 mm | 1.34 m/s, 292° | - | - |
| 1788053809 | 21.11° C | 16% | 1016.2 hPa | 0 mm | 0.89 m/s, 270° | - | - |
| 1788053209 | 20.56° C | 15% | 1016.3 hPa | 0 mm | 0.89 m/s, 337° | - | - |
| 1788052609 | 20° C | 17% | 1016.2 hPa | 0 mm | 0.89 m/s, 292° | - | - |
| 1788052009 | 21.11° C | 17% | 1016.3 hPa | 0 mm | 0.89 m/s, 292° | - | - |
| 1788051409 | 21.11° C | 17% | 1016.3 hPa | 0 mm | 0.89 m/s, 292° | - | - |
| 1788050809 | 20.56° C | 20% | 1016.2 hPa | 0 mm | 0.45 m/s, 292° | - | - |
| 1788050209 | 21.11° C | 21% | 1016.2 hPa | 0 mm | 1.79 m/s, 292° | - | - |
| 1788049609 | 21.11° C | 22% | 1016.2 hPa | 0 mm | 1.34 m/s, 292° | - | - |
| 1788049009 | 21.67° C | 22% | 1016.1 hPa | 0 mm | 2.24 m/s, 270° | - | - |
| 1788048408 | 21.67° C | 24% | 1016.1 hPa | 0 mm | 2.68 m/s, 292° | - | - |
| 1788047808 | 21.11° C | 27% | 1015.8 hPa | 0 mm | 2.68 m/s, 270° | - | - |
| 1788047209 | 21.11° C | 31% | 1016 hPa | 0 mm | 2.24 m/s, 270° | - | - |
| 1788046608 | 21.11° C | 32% | 1016 hPa | 0 mm | 1.79 m/s, 292° | - | - |
* Rain latest hour (hover to see other rain measurements)
** Current wind speed in m/s (hover to see current wind gust speed)